Tracking 31027 objects as of 19-Jul-2025
HD Live streaming from Space Station
objects crossing your sky now

SL-14 DEB

Track SL-14 DEB now!
10-day predictions


NORAD ID: 39976
Int'l Code: 1987-068DC
Perigee: 884.6 km
Apogee: 896.3 km
Inclination: 82.5 °
Period: 102.6 minutes
Semi major axis: 7261 km
RCS: 0.0056 m2 (small)
Launch date: August 18, 1987
Source: Commonwealth of Independent States (former USSR) (CIS)
Launch site: PLESETSK MISSILE AND SPACE COMPLEX (PKMTR)

Note: This is SATELLITE DEBRIS
Your satellite tracking list
EKRAN 2 DEB
Track 1 satellite(s)




NASA's NSSDC Master Catalog

Two Line Element Set (TLE):
1 39976U 87068DC  25189.93755285  .00000952  00000-0  60321-3 0  9993
2 39976  82.5463  80.0848 0008020 265.3844  94.6410 14.03034464 84504
Source of the keplerian elements: AFSPC